Previsão horária em 1-e Itkulovo

Hoje, 17 Maio, Segunda-feira

Tempo Temperatura Precipitação Vento Pressão Humidade
00:00 +17°C° 0 mm 0 m/s 721 mmHg 55%
01:00 +16°C° 0 mm 0 m/s 721 mmHg 54%
02:00 +18°C° 0 mm 1 m/s 721 mmHg 53%
03:00 +18°C° 0 mm 1 m/s 721 mmHg 51%
04:00 +18°C° 0 mm 1 m/s 721 mmHg 49%
05:00 +20°C° 0 mm 1 m/s 721 mmHg 46%
06:00 +20°C° 0 mm 0 m/s 722 mmHg 43%
07:00 +22°C° 0 mm 0 m/s 722 mmHg 41%
08:00 +25°C° 0 mm 1 m/s 722 mmHg 37%
09:00 +27°C° 0 mm 2 m/s 722 mmHg 33%
10:00 +29°C° 0 mm 3 m/s 722 mmHg 28%
11:00 +29°C° 0 mm 3 m/s 722 mmHg 28%
12:00 +29°C° 0 mm 3 m/s 722 mmHg 27%
13:00 +29°C° 0 mm 4 m/s 722 mmHg 26%
14:00 +29°C° 0 mm 4 m/s 722 mmHg 28%
15:00 +28°C° 0 mm 4 m/s 722 mmHg 29%
16:00 +28°C° 0 mm 4 m/s 721 mmHg 31%
17:00 +26°C° 0 mm 4 m/s 721 mmHg 39%
18:00 +24°C° 0 mm 3 m/s 721 mmHg 46%
19:00 +21°C° 0 mm 3 m/s 720 mmHg 54%
20:00 +20°C° 0 mm 3 m/s 720 mmHg 58%
21:00 +18°C° 0 mm 2 m/s 720 mmHg 61%
22:00 +17°C° 0 mm 2 m/s 720 mmHg 65%
23:00 +17°C° 0 mm 2 m/s 720 mmHg 64%

Amanhã, 18 Maio, Terça-feira

Tempo Temperatura Precipitação Vento Pressão Humidade
00:00 +17°C° 0 mm 2 m/s 719 mmHg 63%
01:00 +17°C° 0 mm 2 m/s 719 mmHg 62%
02:00 +18°C° 0 mm 1 m/s 719 mmHg 62%
03:00 +18°C° 0 mm 1 m/s 719 mmHg 61%
04:00 +16°C° 0 mm 1 m/s 719 mmHg 61%
05:00 +19°C° 0 mm 1 m/s 719 mmHg 58%
06:00 +21°C° 0 mm 1 m/s 719 mmHg 55%
07:00 +22°C° 0 mm 1 m/s 719 mmHg 52%
08:00 +24°C° 0 mm 2 m/s 719 mmHg 46%
09:00 +26°C° 0 mm 2 m/s 719 mmHg 40%
10:00 +28°C° 0 mm 2 m/s 719 mmHg 34%
11:00 +28°C° 0 mm 2 m/s 719 mmHg 31%
12:00 +29°C° 0 mm 2 m/s 719 mmHg 29%
13:00 +29°C° 0 mm 2 m/s 718 mmHg 26%
14:00 +29°C° 0 mm 2 m/s 718 mmHg 26%
15:00 +29°C° 0 mm 2 m/s 718 mmHg 25%
16:00 +29°C° 0 mm 2 m/s 717 mmHg 25%
17:00 +27°C° 0 mm 2 m/s 717 mmHg 34%
18:00 +25°C° 0 mm 2 m/s 717 mmHg 42%
19:00 +22°C° 0 mm 3 m/s 717 mmHg 51%
20:00 +21°C° 0.1 mm 2 m/s 717 mmHg 57%
21:00 +19°C° 0.1 mm 2 m/s 717 mmHg 63%
22:00 +18°C° 0.1 mm 2 m/s 717 mmHg 69%
23:00 +17°C° 0 mm 4 m/s 717 mmHg 71%

Depois de amanhã, 19 Maio, Quarta-feira

Tempo Temperatura Precipitação Vento Pressão Humidade
00:00 +16°C° 0 mm 5 m/s 717 mmHg 74%
01:00 +15°C° 0 mm 7 m/s 717 mmHg 76%
02:00 +14°C° 0 mm 7 m/s 717 mmHg 80%
03:00 +12°C° 0 mm 7 m/s 717 mmHg 84%
04:00 +11°C° 0 mm 7 m/s 717 mmHg 88%
05:00 +11°C° 0 mm 7 m/s 718 mmHg 87%
06:00 +11°C° 0 mm 8 m/s 718 mmHg 85%
07:00 +11°C° 0 mm 8 m/s 719 mmHg 83%
08:00 +12°C° 0 mm 8 m/s 719 mmHg 76%
09:00 +15°C° 0 mm 8 m/s 719 mmHg 68%
10:00 +16°C° 0 mm 8 m/s 720 mmHg 61%
11:00 +17°C° 0 mm 8 m/s 720 mmHg 56%
12:00 +18°C° 0 mm 8 m/s 720 mmHg 52%
13:00 +20°C° 0 mm 7 m/s 720 mmHg 48%
14:00 +20°C° 0 mm 7 m/s 720 mmHg 47%
15:00 +20°C° 0 mm 7 m/s 720 mmHg 47%
16:00 +20°C° 0 mm 7 m/s 720 mmHg 46%
17:00 +19°C° 0 mm 6 m/s 720 mmHg 48%
18:00 +17°C° 0 mm 6 m/s 720 mmHg 50%
19:00 +17°C° 0 mm 5 m/s 720 mmHg 53%
20:00 +15°C° 0 mm 5 m/s 720 mmHg 52%
21:00 +14°C° 0 mm 5 m/s 720 mmHg 52%
22:00 +13°C° 0 mm 4 m/s 720 mmHg 52%
23:00 +13°C° 0 mm 4 m/s 721 mmHg 53%

20 Maio, Quinta-feira

Tempo Temperatura Precipitação Vento Pressão Humidade
00:00 +12°C° 0 mm 4 m/s 721 mmHg 55%
01:00 +11°C° 0 mm 4 m/s 721 mmHg 56%
02:00 +11°C° 0 mm 4 m/s 721 mmHg 58%
03:00 +10°C° 0 mm 4 m/s 721 mmHg 61%
04:00 +10°C° 0 mm 3 m/s 721 mmHg 63%
05:00 +11°C° 0 mm 4 m/s 721 mmHg 60%
06:00 +12°C° 0 mm 4 m/s 722 mmHg 58%
07:00 +13°C° 0 mm 5 m/s 722 mmHg 55%
08:00 +15°C° 0 mm 5 m/s 722 mmHg 50%
09:00 +16°C° 0 mm 6 m/s 722 mmHg 45%
10:00 +19°C° 0 mm 6 m/s 722 mmHg 40%
11:00 +19°C° 0 mm 6 m/s 722 mmHg 38%
12:00 +20°C° 0 mm 6 m/s 722 mmHg 35%
13:00 +21°C° 0 mm 6 m/s 722 mmHg 33%
14:00 +22°C° 0 mm 6 m/s 721 mmHg 32%
15:00 +22°C° 0 mm 6 m/s 721 mmHg 32%
16:00 +22°C° 0 mm 6 m/s 721 mmHg 31%
17:00 +21°C° 0 mm 5 m/s 721 mmHg 37%
18:00 +19°C° 0 mm 4 m/s 720 mmHg 42%
19:00 +18°C° 0 mm 4 m/s 720 mmHg 47%
20:00 +17°C° 0 mm 3 m/s 720 mmHg 49%
21:00 +14°C° 0 mm 3 m/s 720 mmHg 51%
22:00 +14°C° 0 mm 2 m/s 720 mmHg 53%
23:00 +13°C° 0 mm 2 m/s 720 mmHg 54%

21 Maio, Sexta-feira

Tempo Temperatura Precipitação Vento Pressão Humidade
00:00 +13°C° 0 mm 2 m/s 720 mmHg 56%
01:00 +12°C° 0 mm 2 m/s 720 mmHg 58%
02:00 +12°C° 0 mm 2 m/s 720 mmHg 59%
03:00 +12°C° 0 mm 2 m/s 720 mmHg 61%
04:00 +10°C° 0 mm 2 m/s 720 mmHg 62%
05:00 +12°C° 0 mm 3 m/s 720 mmHg 59%
06:00 +13°C° 0 mm 3 m/s 720 mmHg 55%
07:00 +15°C° 0 mm 4 m/s 720 mmHg 52%
08:00 +17°C° 0 mm 5 m/s 720 mmHg 47%
09:00 +19°C° 0 mm 5 m/s 720 mmHg 42%
10:00 +21°C° 0 mm 6 m/s 720 mmHg 37%
11:00 +22°C° 0 mm 6 m/s 720 mmHg 36%
12:00 +22°C° 0 mm 6 m/s 720 mmHg 35%
13:00 +23°C° 0 mm 6 m/s 720 mmHg 34%
14:00 +23°C° 0 mm 6 m/s 720 mmHg 37%
15:00 +23°C° 0 mm 5 m/s 720 mmHg 40%
16:00 +23°C° 0 mm 5 m/s 720 mmHg 43%
17:00 +21°C° 0 mm 4 m/s 720 mmHg 47%
18:00 +20°C° 0 mm 2 m/s 720 mmHg 51%
19:00 +20°C° 0 mm 1 m/s 720 mmHg 56%
20:00 +19°C° 0 mm 1 m/s 720 mmHg 56%
21:00 +18°C° 0 mm 1 m/s 720 mmHg 57%
22:00 +16°C° 0 mm 1 m/s 720 mmHg 58%
23:00 +14°C° 0 mm 0 m/s 720 mmHg 59%

22 Maio, Sábado

Tempo Temperatura Precipitação Vento Pressão Humidade
00:00 +14°C° 0 mm 0 m/s 720 mmHg 59%
01:00 +13°C° 0 mm 0 m/s 720 mmHg 60%
02:00 +13°C° 0 mm 0 m/s 720 mmHg 61%
03:00 +13°C° 0 mm 0 m/s 720 mmHg 62%
04:00 +13°C° 0 mm 0 m/s 720 mmHg 63%
05:00 +14°C° 0 mm 0 m/s 721 mmHg 61%
06:00 +16°C° 0 mm 0 m/s 721 mmHg 58%
07:00 +18°C° 0 mm 0 m/s 721 mmHg 56%
08:00 +21°C° 0 mm 1 m/s 721 mmHg 52%
09:00 +23°C° 0 mm 1 m/s 722 mmHg 48%
10:00 +25°C° 0 mm 2 m/s 722 mmHg 44%
11:00 +26°C° 0 mm 2 m/s 722 mmHg 41%
12:00 +26°C° 0 mm 2 m/s 722 mmHg 38%
13:00 +27°C° 0 mm 2 m/s 722 mmHg 35%
14:00 +28°C° 0 mm 2 m/s 722 mmHg 35%
15:00 +28°C° 0 mm 1 m/s 721 mmHg 34%
16:00 +28°C° 0 mm 1 m/s 721 mmHg 33%
17:00 +27°C° 0 mm 1 m/s 721 mmHg 39%
18:00 +25°C° 0 mm 1 m/s 721 mmHg 45%
19:00 +24°C° 0 mm 1 m/s 721 mmHg 50%
20:00 +23°C° 0 mm 1 m/s 721 mmHg 52%
21:00 +19°C° 0 mm 0 m/s 721 mmHg 54%
22:00 +18°C° 0 mm 0 m/s 721 mmHg 56%
23:00 +17°C° 0 mm 0 m/s 721 mmHg 57%
Mostrar mais

Necessitamos do seu Consentimento

A Meteoprog e os seus Fornecedores de Serviços podem armazenar e aceder a dados pessoais como cookies, identificadores do dispositivo ou outras tecnologias semelhantes existentes no seu dispositivo e processar estes dados para personalizar conteúdos e anúncios, assim como funcionalidades nas redes sociais e análise de tráfego.

  • Armazenar e/ou aceder a informações no seu dispositivo

    Os cookies, identificadores do dispositivo ou outras informações podem ser armazenados ou acedidos no seu dispositivo, para os fins acima indicados.

  • Anúncios e conteúdos personalizados, medição de anúncios e conteúdos, dados sobre o público-alvo e desenvolvimento de produtos

    Os anúncios e os conteúdos podem ser personalizados com base num perfil. Podem ser adicionados dados adicionais para uma maior personalização dos anúncios e dos conteúdos. A eficácia dos anúncios e dos conteúdos pode ser medida. Podem ser obtidas informações sobre o público que visualizou os anúncios e os conteúdos. Estes dados podem ser usados para desenvolver ou melhorar sistemas, softwares ou a experiência do utilizador.

Ao clicar em "Eu concordo”, permitirá o uso de cookies, identificadores do dispositivo e web beacons mencionados ou outras tecnologias semelhantes. As configurações do navegador do seu dispositivo podem ser alteradas.

Para certos fins, podem ser invocados interesses legítimos ao invés de consentimento. Pode ler mais informação sobre este assunto na nossa Política de Privacidade e Cookies.